Location: Unspecified
(49.9820°N, 20.4363°E)
Time: 07:02:33
(UTC+02:00)

A-11 Canister half - All Passes

Search period start: 14 May 2026 00:00
Search period end: 24 May 2026 00:00
Orbit: 1523 x 1685 km, 47.3° (Epoch: 13 May)

Date Brightness Start Highest point End Pass type
(mag) Time Alt. Az. Time Alt. Az. Time Alt. Az.
14 May - 00:40:07 10° W 00:48:43 34° SW 00:57:26 10° SSE visible
14 May - 16:04:04 10° S 16:10:19 20° SE 16:16:41 10° E daylight
14 May - 18:04:26 10° SW 18:13:31 51° SSE 18:22:56 10° ENE daylight
14 May - 20:08:20 10° WSW 20:18:00 76° S 20:28:02 10° E daylight
14 May - 22:13:07 10° W 22:22:51 67° SSW 22:32:51 10° ESE visible
15 May - 00:18:13 10° W 00:26:54 36° SW 00:35:45 10° SSE visible
15 May - 15:42:37 10° SSE 15:48:34 19° SE 15:54:37 10° E daylight
15 May - 17:42:42 10° SW 17:51:42 49° SSE 18:01:02 10° ENE daylight
15 May - 19:46:30 10° WSW 19:56:09 76° S 20:06:08 10° E daylight
15 May - 21:51:16 10° W 22:00:59 69° SSW 22:10:59 10° ESE visible
15 May - 23:56:19 10° W 00:05:06 37° SW 00:14:02 10° SSE visible
16 May - 02:05:53 10° WSW 02:07:51 11° WSW 02:09:49 10° SW visible
16 May - 15:21:13 10° SSE 15:26:49 18° SE 15:32:31 10° E daylight
16 May - 17:20:59 10° SW 17:29:54 48° SSE 17:39:08 10° ENE daylight
16 May - 19:24:40 10° WSW 19:34:16 75° S 19:44:14 10° E daylight
16 May - 21:29:25 10° W 21:39:07 70° SSW 21:49:07 10° ESE visible
16 May - 23:34:26 10° WNW 23:43:18 39° SW 23:52:19 10° SSE visible
17 May - 01:43:06 10° WSW 01:46:07 12° WSW 01:49:08 10° SW visible
17 May - 14:59:51 10° SSE 15:05:06 16° SE 15:10:24 10° E daylight
17 May - 16:59:15 10° SW 17:08:05 46° SSE 17:17:14 10° ENE daylight
17 May - 19:02:51 10° WSW 19:12:24 74° S 19:22:20 10° E daylight
17 May - 21:07:34 10° W 21:17:16 71° SSW 21:27:15 10° ESE visible
17 May - 23:12:33 10° WNW 23:21:29 40° SW 23:30:35 10° SSE visible
18 May - 01:20:37 10° W 01:24:22 13° WSW 01:28:08 10° SW visible
18 May - 14:38:33 10° SSE 14:43:22 15° SE 14:48:14 10° E daylight
18 May - 16:37:32 10° SW 16:46:17 45° SE 16:55:20 10° ENE daylight
18 May - 18:41:02 10° WSW 18:50:33 74° S 19:00:27 10° E daylight
18 May - 20:45:44 10° W 20:55:24 72° SSW 21:05:23 10° ESE visible
18 May - 22:50:41 10° WNW 22:59:40 41° SW 23:08:50 10° SSE visible
19 May - 00:58:17 10° W 01:02:37 14° SW 01:06:59 10° SSW visible
19 May - 14:17:18 10° SSE 14:21:38 14° SE 14:26:01 10° E daylight
19 May - 16:15:50 10° SSW 16:24:30 43° SE 16:33:25 10° ENE daylight
19 May - 18:19:12 10° WSW 18:28:42 73° SSE 18:38:33 10° E daylight
19 May - 20:23:53 10° W 20:33:32 72° SSW 20:43:30 10° ESE daylight
19 May - 22:28:48 10° WNW 22:37:50 43° SW 22:47:06 10° SSE visible
20 May - 00:36:03 10° W 00:40:52 15° SW 00:45:45 10° SSW visible
20 May - 13:56:08 10° SSE 13:59:54 13° ESE 14:03:42 10° E daylight
20 May - 15:54:08 10° SSW 16:02:42 41° SE 16:11:31 10° ENE daylight
20 May - 17:57:24 10° WSW 18:06:51 72° SSE 18:16:40 10° E daylight
20 May - 20:02:03 10° W 20:11:41 73° SSW 20:21:38 10° ESE daylight
20 May - 22:06:57 10° WNW 22:16:01 44° SW 22:25:20 10° SSE visible
21 May - 00:13:52 10° W 00:19:07 16° SW 00:24:25 10° SSW visible
21 May - 13:35:07 10° SE 13:38:11 12° ESE 13:41:16 10° ESE daylight
21 May - 15:32:26 10° SSW 15:40:54 40° SE 15:49:37 10° ENE daylight
21 May - 17:35:35 10° WSW 17:45:00 71° SSE 17:54:46 10° E daylight
21 May - 19:40:12 10° W 19:49:49 74° S 19:59:45 10° ESE daylight
21 May - 21:45:05 10° WNW 21:54:12 46° SSW 22:03:33 10° SE visible
21 May - 23:51:45 10° W 23:57:21 17° SW 00:03:02 10° SSW visible
22 May - 13:14:22 10° SE 13:16:28 11° ESE 13:18:34 10° ESE daylight
22 May - 15:10:46 10° SSW 15:19:07 38° SE 15:27:41 10° E daylight
22 May - 17:13:47 10° WSW 17:23:09 70° SSE 17:32:53 10° E daylight
22 May - 19:18:22 10° W 19:27:57 75° S 19:37:53 10° ESE daylight
22 May - 21:23:13 10° WNW 21:32:22 47° SSW 21:41:47 10° SE visible
22 May - 23:29:40 10° W 23:35:35 18° SW 23:41:37 10° SSW visible
23 May - 14:49:06 10° SSW 14:57:19 37° SE 15:05:47 10° E daylight
23 May - 16:51:58 10° WSW 17:01:19 69° SSE 17:11:00 10° E daylight
23 May - 18:56:31 10° W 19:06:06 75° S 19:16:00 10° ESE daylight
23 May - 21:01:22 10° WNW 21:10:33 49° SSW 21:19:59 10° SE visible
23 May - 23:07:36 10° W 23:13:50 19° SW 23:20:09 10° SSW visible
